Tracking 28096 objects as of 29-Sep-2023
HD Live streaming from Space Station
objects crossing your sky now

STARLINK-5880

Track STARLINK-5880 now!
10-day predictions
STARLINK-5880 is classified as:


NORAD ID: 57220
Int'l Code: 2023-094C
Perigee: 565.0 km
Apogee: 567.4 km
Inclination: 43.0 °
Period: 95.8 minutes
Semi major axis: 6937 km
RCS: Unknown
Launch date: July 7, 2023
Source: United States (US)
Launch site: AIR FORCE WESTERN TEST RANGE (AFWTR)
Your satellite tracking list
Your tracking list is empty




NASA's NSSDC Master Catalog

Two Line Element Set (TLE):
1 57220U 23094C   23271.86212890  .00001800  00000-0  14827-3 0  9999
2 57220  43.0026 201.8630 0001739 284.4082  75.6567 15.02535558 12818
Source of the keplerian elements: AFSPC